Temperature
4 4 4 4 4 4 3 3 3 3 3 3 4 4 4 4 4 4 4 4 4 4 4 4 4 4 4 4 4 4 4 4 4 4 4 4 4 4
4 4 3 3 3 3 3 3 3 3 3 3 3 3 3 3 3 3 3 3 3 3 3 3 3 3 3 3 3 3 3 3 3 3 3 3 3 3
3 3 3 3 3 3 3 3 3 3 3 3 3 3 3 3 3 3 3 3 3 3 3 3 3 3 3 3 3 3 3 3 3 3 3 3 3 2
3 2 2 2 2 2 2 2 2 2 2 2 2 2 2 2 2 2 2 2 3 3 3 2 2 2 2 2 2 2 2 2 2 2 2 2 2 2
2 2 2 2 2 2 2 2 2 2 2 1 2 2 2 2 2 2 2 2 2 2 2 2 2 2 2 2 2 2 2 2 2 2 2 2 2 2
2 2 1 1 1 1 1 1 1 1 1 1 1 1 1 1 1 1 1 2 2 2 2 2 2 1 1 2 2 1 1 1 1 2 2 2 2 1
1 1 1 1 1 1 1 1 1 1 1 1 1 0 1 0 0 1 1 1 1 1 1 1 1 1 1 1 1 1 1 1 1 1 1 1 1 1
0 1 0 0 -0 0 0 0 0 0 0 0 0 0 0 0 0 0 0 0 0 0 0 1 1 1 1 1 1 1 1 1 1 1 1 1 1 1
0 -0 -0 -0 -0 -0 -0 -0 -0 -0 -0 -0 -0 -0 -0 -0 -0 -0 -0 -0 -0 -0 -0 -0 0 0 0 0 0 0 0 0 0 0 0 0 0 0
-1 -1 -1 -1 -1 -1 -1 -1 -1 -1 -1 -1 -1 -1 -1 -1 -1 -1 -1 -1 -1 -1 -1 -1 -0 -0 -0 0 0 -0 -0 -0 -0 -0 -0 -0 -0 -0
-1 -1 -1 -1 -1 -1 -1 -1 -1 -1 -1 -1 -1 -1 -1 -1 -1 -1 -1 -1 -1 -1 -1 -1 -1 -1 -1 -1 -0 -1 -1 -1 -1 -1 -1 -1 -1 -1
-2 -2 -2 -2 -1 -2 -1 -1 -1 -1 -1 -1 -1 -1 -1 -1 -1 -2 -2 -2 -2 -2 -2 -2 -2 -2 -2 -1 -1 -1 -1 -1 -1 -1 -1 -1 -1 -1
-2 -2 -2 -2 -2 -2 -2 -2 -2 -2 -2 -2 -2 -2 -2 -2 -2 -2 -2 -2 -2 -2 -2 -2 -2 -2 -3 -2 -2 -1 -1 -1 -1 -1 -1 -1 -1 -2
-3 -3 -3 -3 -3 -2 -2 -2 -2 -2 -2 -2 -2 -2 -2 -2 -2 -2 -2 -2 -2 -2 -2 -2 -3 -3 -3 -3 -3 -2 -2 -2 -2 -1 -1 -2 -2 -2
-3 -3 -3 -3 -3 -3 -3 -3 -3 -3 -3 -3 -3 -3 -3 -3 -3 -3 -3 -3 -2 -2 -2 -2 -2 -3 -3 -3 -3 -3 -2 -2 -2 -2 -2 -2 -2 -2
-4 -3 -3 -3 -3 -3 -3 -3 -3 -3 -3 -3 -3 -3 -3 -3 -3 -3 -3 -3 -3 -2 -3 -3 -3 -3 -3 -3 -3 -3 -3 -3 -3 -3 -3 -2 -2 -2
-4 -4 -4 -4 -4 -4 -4 -4 -3 -3 -3 -4 -4 -4 -3 -3 -4 -4 -3 -3 -3 -3 -3 -3 -3 -3 -3 -3 -3 -3 -3 -3 -3 -3 -3 -2 -2 -3
-4 -4 -4 -4 -4 -4 -4 -4 -4 -4 -4 -4 -4 -4 -4 -4 -4 -4 -4 -4 -3 -3 -3 -3 -3 -3 -3 -3 -3 -3 -3 -3 -3 -3 -3 -3 -3 -2
-4 -4 -5 -5 -5 -5 -5 -5 -5 -5 -4 -4 -4 -4 -4 -4 -4 -4 -4 -4 -4 -4 -4 -3 -3 -3 -4 -4 -3 -3 -4 -3 -3 -3 -3 -3 -3 -3
-5 -5 -5 -5 -5 -5 -5 -5 -5 -5 -5 -5 -5 -5 -5 -5 -5 -5 -4 -4 -4 -4 -4 -4 -4 -4 -4 -4 -4 -4 -4 -4 -3 -3 -3 -3 -3 -3
-6 -6 -6 -5 -5 -5 -5 -5 -5 -5 -5 -5 -5 -5 -5 -5 -5 -5 -5 -4 -4 -4 -4 -4 -4 -4 -4 -4 -4 -4 -4 -4 -4 -4 -3 -3 -3 -3
-6 -6 -6 -6 -6 -6 -6 -6 -6 -6 -5 -5 -5 -5 -5 -5 -5 -5 -5 -5 -5 -5 -4 -4 -4 -4 -4 -4 -4 -4 -4 -4 -4 -4 -4 -4 -4 -4
-6 -6 -6 -6 -6 -6 -6 -6 -6 -6 -6 -6 -6 -5 -5 -5 -5 -5 -5 -5 -5 -5 -5 -4 -4 -4 -4 -4 -4 -4 -4 -4 -4 -4 -4 -4 -4 -4
Wind_Speed
4 4 3 3 3 3 3 3 4 5 6 4 2 3 3 5 7 6 6 10 11 11 11 10 10 11 13 13 13 13 14 14 14 14 13 14 14 14
3 3 3 3 3 3 3 3 4 5 6 4 3 3 4 5 8 6 7 9 10 11 11 11 11 11 12 13 12 13 13 14 14 13 13 14 14 13
4 4 4 4 3 3 3 3 3 4 6 6 3 3 4 5 5 5 7 6 7 11 11 11 11 11 12 13 13 13 14 14 13 13 13 14 14 14
4 4 4 4 4 3 3 4 4 4 5 7 5 4 5 4 4 5 5 6 7 10 11 11 11 12 12 12 13 12 13 13 12 12 12 13 14 14
4 4 4 4 4 3 4 4 4 4 4 5 6 4 4 4 4 5 5 5 6 8 9 10 11 11 11 12 12 12 11 11 11 11 11 12 13 14
3 4 4 4 5 4 4 4 3 3 4 4 5 4 4 4 3 4 5 4 5 5 7 9 10 11 11 11 11 11 10 10 10 11 11 12 12 13
2 3 4 4 6 5 5 4 3 3 4 4 5 5 4 3 4 3 5 5 5 3 4 5 5 5 6 9 10 9 9 9 9 10 10 11 11 12
2 2 2 3 4 5 6 6 5 5 5 5 5 5 5 5 4 4 4 5 5 2 3 5 4 5 5 5 7 8 9 9 9 9 9 10 10 10
2 2 3 3 3 3 4 5 5 6 7 6 6 6 6 5 5 5 5 5 5 3 3 5 4 4 5 7 8 8 8 8 9 9 9 9 10 10
1 2 2 3 3 3 3 3 3 4 5 4 4 5 5 5 5 5 5 5 4 3 2 4 4 4 5 6 7 7 8 8 8 7 8 9 9 10
2 2 2 2 4 5 3 3 3 3 4 5 6 5 6 6 5 3 3 3 4 3 1 2 3 4 4 4 5 7 8 9 8 8 8 9 9 10
2 2 3 4 5 5 3 2 3 4 4 4 4 5 4 5 5 3 3 4 4 3 1 2 2 2 3 3 3 5 6 7 8 9 9 9 9 6
2 2 2 4 5 6 5 3 4 4 3 3 3 2 2 2 2 2 2 3 3 3 2 1 2 2 2 4 3 3 4 4 5 6 8 9 9 7
2 2 2 5 6 6 5 4 6 5 3 2 2 2 2 2 3 3 2 2 3 4 3 2 2 2 3 4 4 3 4 4 3 4 5 7 8 8
2 3 4 5 6 5 5 6 5 3 2 2 2 3 3 2 2 2 2 2 2 3 3 2 3 3 3 4 4 4 4 3 3 3 4 4 4 4
3 3 5 5 4 4 4 4 3 2 2 2 2 3 2 2 2 2 2 2 2 3 3 3 2 3 4 4 4 5 4 3 3 4 4 4 4 3
3 2 2 2 2 3 3 3 3 3 3 2 2 2 3 2 2 2 1 2 2 3 4 3 3 2 4 4 4 4 3 3 3 4 4 4 4 3
4 3 2 2 2 2 3 3 3 3 3 2 2 2 3 3 2 2 2 2 2 3 3 3 3 3 2 2 3 3 3 3 3 3 3 4 4 4
4 3 3 3 2 2 2 3 3 3 3 3 2 2 3 3 3 2 2 2 2 3 3 3 3 2 3 4 3 2 2 3 3 3 3 3 4 5
3 3 3 3 3 3 3 3 3 3 3 3 2 2 2 2 2 2 2 2 3 3 3 3 2 2 2 3 4 4 4 3 3 4 4 4 4 6
4 3 3 3 3 3 3 3 3 3 3 3 3 3 2 2 2 2 2 3 3 3 3 4 3 4 3 2 2 3 3 4 4 3 4 4 4 3
4 4 3 3 3 3 3 3 3 3 3 3 3 3 2 2 2 3 3 3 3 3 3 3 3 3 2 1 3 4 4 4 5 6 4 3 2 2
4 4 4 4 3 3 3 3 3 3 2 3 3 2 2 2 2 2 2 2 3 3 3 4 3 2 2 2 3 3 4 5 4 4 4 6 6 7
Wind_Direction
219 223 234 244 240 247 245 236 243 270 273 259 260 267 279 274 275 273 272 278 285 288 292 295 298 302 303 301 303 305 305 306 306 303 299 297 299 302
224 220 233 242 239 237 237 243 242 249 269 267 270 287 289 285 284 283 279 283 283 286 289 291 293 297 302 302 301 302 303 304 303 302 302 301 301 302
237 234 239 239 238 240 240 244 251 248 263 279 281 291 290 289 291 285 285 282 282 283 284 287 291 295 299 302 301 300 302 301 300 299 298 300 302 303
231 235 243 249 248 249 248 250 255 253 257 274 285 284 282 278 278 279 287 285 281 283 284 285 289 294 297 300 301 300 301 300 301 304 300 301 303 305
231 235 240 242 250 253 256 254 257 263 262 266 277 283 283 282 288 288 280 279 285 288 286 285 288 293 295 296 298 298 299 300 302 308 307 303 302 304
235 239 241 238 243 246 255 253 258 267 268 267 276 284 288 286 293 292 296 291 290 295 298 296 292 293 295 297 297 294 297 300 304 309 311 309 307 306
248 250 255 255 260 261 263 252 248 254 258 263 270 279 284 293 289 287 291 295 289 284 295 301 300 297 297 298 298 299 301 301 304 309 311 312 312 311
249 261 266 261 268 275 279 278 265 255 253 254 260 267 276 280 283 286 291 297 292 296 305 296 299 291 296 292 298 299 301 303 306 312 317 319 320 320
263 275 284 280 282 273 283 290 290 284 266 251 252 262 270 273 276 279 282 285 282 287 303 288 289 288 301 298 300 300 298 300 304 312 319 322 325 327
296 284 283 290 286 283 282 285 285 288 283 274 256 263 270 270 263 264 270 281 279 283 281 281 291 287 301 302 299 306 310 312 315 319 324 327 326 325
312 303 296 299 299 298 286 283 294 302 303 283 273 276 286 292 292 288 289 287 284 284 286 282 295 301 297 297 317 327 328 324 322 324 327 327 326 324
333 331 321 322 320 316 310 300 299 301 306 309 303 295 296 301 302 286 275 276 281 288 306 309 298 320 314 297 315 337 336 333 333 330 329 329 329 331
327 336 333 331 326 323 322 313 307 311 310 308 308 309 309 305 299 287 268 256 266 273 303 321 296 307 291 299 307 317 330 331 335 332 329 330 332 336
322 324 325 331 329 326 324 325 323 322 320 316 317 315 311 302 295 289 277 261 257 262 277 269 268 279 290 296 297 309 311 321 332 332 336 332 330 327
323 327 332 333 334 333 336 334 330 331 334 330 318 308 306 302 304 306 308 293 291 287 286 274 253 263 264 273 284 298 310 311 320 326 329 327 323 326
341 347 348 347 346 347 346 339 340 342 337 315 306 304 313 321 323 318 314 321 314 317 320 308 282 259 270 274 275 287 300 301 315 316 316 316 325 326
350 358 2 357 5 3 355 348 349 348 342 334 326 326 328 326 323 328 325 330 317 314 327 324 305 274 257 260 274 281 292 297 300 310 318 319 317 317
11 7 5 6 356 347 343 343 348 347 341 336 331 323 321 326 331 340 334 323 317 316 319 322 328 330 320 305 249 271 290 292 304 313 311 308 309 309
20 4 356 350 344 341 339 340 340 338 337 337 330 325 324 327 327 327 328 323 317 317 318 320 326 331 331 321 314 287 280 302 309 306 300 292 291 299
8 358 349 345 342 341 343 341 339 342 341 338 336 333 329 323 322 324 324 326 324 326 325 327 324 315 289 287 296 304 308 290 292 294 294 293 290 296
357 350 346 340 337 339 342 340 335 334 334 332 333 332 330 330 334 331 331 337 334 331 330 327 314 316 291 290 302 312 318 323 307 285 287 300 308 318
348 342 339 335 335 337 338 335 332 332 330 324 323 327 330 333 329 332 338 338 335 328 319 316 319 328 335 321 307 310 321 331 335 324 300 275 275 286
340 337 335 333 333 334 331 327 323 321 321 320 323 324 326 327 325 328 333 334 330 331 331 331 339 339 320 299 304 316 328 331 329 334 331 335 319 300
Height
1470 1470 1471 1471 1472 1472 1472 1473 1473 1469 1467 1466 1467 1467 1467 1466 1465 1464 1463 1462 1460 1459 1458 1456 1454 1453 1451 1449 1448 1446 1444 1442 1441 1439 1437 1436 1435 1434
1465 1466 1466 1467 1467 1467 1468 1468 1468 1467 1463 1462 1462 1462 1462 1461 1461 1459 1458 1457 1455 1454 1452 1451 1450 1448 1446 1444 1443 1441 1439 1437 1436 1434 1433 1431 1430 1429
1461 1461 1461 1462 1462 1463 1463 1463 1462 1462 1459 1457 1458 1458 1457 1456 1455 1455 1453 1451 1450 1449 1447 1446 1444 1443 1441 1439 1438 1436 1434 1432 1430 1429 1427 1426 1425 1424
1456 1456 1457 1457 1457 1458 1458 1458 1458 1457 1456 1453 1452 1452 1452 1452 1451 1450 1448 1447 1445 1444 1442 1441 1439 1438 1436 1434 1432 1431 1429 1427 1426 1423 1422 1421 1420 1419
1451 1452 1452 1452 1452 1453 1453 1452 1452 1452 1452 1450 1448 1448 1447 1447 1446 1445 1443 1442 1440 1439 1437 1436 1434 1433 1431 1429 1428 1426 1424 1423 1421 1419 1417 1416 1415 1414
1447 1447 1448 1448 1448 1448 1448 1447 1447 1447 1447 1446 1444 1443 1442 1442 1441 1440 1438 1437 1436 1434 1433 1431 1430 1428 1427 1425 1423 1422 1420 1418 1417 1415 1413 1412 1411 1409
1442 1443 1443 1443 1443 1444 1443 1443 1442 1442 1442 1441 1440 1439 1438 1437 1437 1436 1434 1433 1431 1430 1428 1427 1425 1423 1422 1420 1419 1417 1416 1414 1413 1411 1409 1408 1406 1405
1437 1438 1438 1439 1439 1439 1439 1439 1439 1438 1437 1436 1435 1434 1433 1434 1433 1432 1431 1429 1426 1426 1424 1422 1421 1419 1418 1416 1415 1413 1412 1410 1409 1407 1406 1404 1402 1401
1434 1434 1434 1434 1435 1435 1434 1434 1434 1434 1433 1432 1431 1430 1430 1429 1429 1427 1426 1425 1423 1422 1420 1417 1417 1415 1414 1412 1411 1409 1408 1407 1405 1404 1402 1400 1399 1397
1431 1431 1431 1430 1431 1431 1430 1429 1429 1428 1428 1427 1427 1426 1426 1425 1425 1424 1422 1421 1419 1418 1417 1414 1412 1411 1410 1408 1407 1406 1404 1403 1402 1400 1398 1397 1395 1394
1428 1428 1428 1427 1427 1427 1426 1425 1424 1424 1423 1423 1422 1422 1421 1421 1421 1420 1418 1417 1415 1414 1414 1412 1409 1408 1407 1405 1403 1402 1401 1400 1398 1397 1395 1394 1392 1390
1425 1425 1425 1424 1424 1424 1423 1422 1420 1420 1419 1419 1418 1417 1417 1417 1417 1416 1415 1414 1412 1411 1410 1409 1407 1406 1404 1402 1401 1399 1398 1397 1395 1394 1392 1391 1389 1387
1422 1422 1422 1422 1421 1420 1420 1418 1417 1417 1416 1415 1414 1413 1413 1413 1413 1412 1412 1411 1410 1408 1408 1407 1405 1404 1403 1399 1397 1396 1395 1394 1392 1391 1390 1388 1386 1384
1420 1420 1419 1419 1418 1417 1416 1415 1414 1414 1413 1412 1411 1410 1410 1410 1409 1409 1409 1408 1407 1406 1405 1405 1403 1402 1400 1397 1395 1393 1392 1391 1390 1388 1387 1385 1384 1382
1419 1418 1417 1417 1416 1415 1414 1413 1412 1411 1410 1409 1408 1407 1407 1407 1407 1406 1406 1405 1404 1403 1402 1401 1400 1399 1398 1396 1393 1391 1389 1388 1387 1386 1384 1382 1380 1379
1417 1416 1415 1414 1413 1412 1412 1411 1410 1409 1408 1407 1406 1406 1405 1405 1404 1404 1403 1402 1401 1400 1400 1399 1398 1397 1395 1393 1392 1389 1388 1386 1385 1384 1382 1380 1378 1377
1415 1414 1413 1412 1411 1410 1410 1409 1408 1407 1406 1405 1404 1404 1403 1403 1402 1401 1401 1400 1399 1397 1396 1396 1395 1394 1393 1392 1389 1387 1386 1384 1383 1382 1379 1377 1376 1375
1414 1412 1411 1410 1410 1409 1408 1407 1406 1405 1404 1403 1403 1402 1401 1401 1400 1400 1399 1398 1397 1396 1395 1394 1393 1392 1390 1389 1388 1386 1384 1383 1381 1380 1378 1375 1373 1373
1413 1411 1410 1410 1409 1408 1407 1406 1405 1404 1403 1402 1401 1401 1400 1400 1399 1398 1397 1396 1395 1394 1393 1392 1391 1390 1388 1386 1386 1386 1383 1381 1379 1377 1375 1374 1372 1370
1412 1411 1410 1409 1408 1407 1406 1405 1404 1403 1402 1401 1400 1400 1399 1398 1398 1397 1396 1395 1394 1393 1392 1391 1390 1388 1387 1386 1384 1383 1382 1380 1377 1375 1373 1372 1370 1369
1411 1410 1409 1408 1407 1406 1405 1404 1403 1402 1401 1400 1399 1398 1398 1397 1396 1396 1395 1394 1393 1392 1390 1389 1389 1388 1386 1385 1383 1381 1380 1378 1376 1374 1372 1370 1368 1366
1410 1409 1408 1407 1406 1405 1404 1403 1402 1401 1400 1399 1398 1397 1396 1396 1395 1394 1394 1393 1392 1391 1390 1389 1388 1387 1385 1384 1382 1379 1378 1376 1375 1373 1371 1369 1367 1364
1409 1408 1407 1406 1405 1404 1402 1401 1400 1399 1398 1397 1397 1396 1395 1395 1394 1394 1393 1392 1391 1390 1389 1388 1387 1386 1384 1383 1381 1379 1377 1375 1373 1371 1370 1368 1367 1365